Regional Weather Roundup
Issued by NWS

Home | Current Version | Previous Version | Text Only | Print | Product List | Glossary Off
Versions: 1 2 3 4 5 6 7 8 9 10 11 12 13 14 15 16 17 18 19 20 21 22 23 24 25 26 27 28 29 30 31 32 33 34 35 36 37 38 39 40 41 42 43 44 45 46 47 48 49 50

000
ASUS43 KMKX 021511
RWRWI

WISCONSIN REGIONAL WEATHER ROUNDUP
NATIONAL WEATHER SERVICE MILWAUKEE/SULLIVAN WI
1000 AM CDT MON MAY 02 2016

NOTE: "FAIR" INDICATES FEW OR NO CLOUDS BELOW 12,000 FEET WITH NO
SIGNIFICANT WEATHER AND/OR OBSTRUCTIONS TO VISIBILITY.

WIZ001-002-006>008-014>016-023>028-021600-
NORTHWEST WISCONSIN

CITY           SKY/WX    TMP DP  RH WIND       PRES   REMARKS
SUPERIOR ARPT  SUNNY     48  35  60 CALM      30.12F
ASHLAND        SUNNY     52  37  56 CALM      30.13F
HAYWARD        SUNNY     53  36  52 SE3       30.11F
SIREN          SUNNY     55  35  46 N6        30.11F
CUMBERLAND     SUNNY     54  37  54 CALM      30.10F
RICE LAKE      SUNNY     54  36  51 SW3       30.12F
CHETEK         SUNNY     55  37  50 SW5       30.11F
LADYSMITH      SUNNY     55  35  47 SW7       30.13F
EAU CLAIRE     SUNNY     57  34  41 S5        30.11R
MENOMONIE      SUNNY     60  37  42 S6        30.11S
NEW RICHMOND   SUNNY     56  35  45 CALM      30.11S
OSCEOLA        SUNNY     53  37  53 CALM      30.14S
$$

WIZ003>005-009-010-017-018-021600-
NORTH CENTRAL WISCONSIN

CITY           SKY/WX    TMP DP  RH WIND       PRES   REMARKS
MANITOWISH WTR SUNNY     54  34  46 W9        30.11F
ARBOR VITAE    SUNNY     57  35  44 NW8       30.10F
WOODRUFF       SUNNY     57  35  44 NW8       30.10F
RHINELANDER    SUNNY     55  32  41 NW8       30.11F
EAGLE RIVER    MOSUNNY   55  29  38 N10       30.10F
LAND O LAKES   SUNNY     55  30  37 W8        30.11F
PHILLIPS       SUNNY     54  34  47 SW3       30.10F
TOMAHAWK       SUNNY     54  33  44 N3        30.11F
MEDFORD        SUNNY     53  36  52 CALM      30.10F
MERRILL        SUNNY     55  35  46 NE8       30.11F
$$

WIZ029-030-035-036-043>047-021600-
CENTRAL WISCONSIN

CITY           SKY/WX    TMP DP  RH WIND       PRES   REMARKS
WAUSAU         SUNNY     58  35  42 NW6       30.09F
MOSINEE        SUNNY     54  36  50 N3        30.12F
MARSHFIELD     SUNNY     55  34  45 CALM      30.10S
STEVENS POINT  SUNNY     54  31  42 NE7       30.11F
WAUPACA        SUNNY     57  33  41 CALM      30.11F
WAUTOMA        SUNNY     55  34  45 NE6       30.11S
WISC RAPIDS    SUNNY     56  31  38 NE5       30.12F
CAMP DOUGLAS   SUNNY     54  46  76 CALM      30.11S
$$

WIZ011>013-019>022-031-037>040-048>050-021600-
NORTHEAST WISCONSIN

CITY           SKY/WX    TMP DP  RH WIND       PRES   REMARKS
ANTIGO         SUNNY     53  33  46 CALM      30.10F
SHAWANO        SUNNY     58  32  37 NE3       30.10F
OCONTO         SUNNY     56  35  46 N9        30.09F
STURGEON BAY   SUNNY     50  34  53 N12       30.11F
GREEN BAY      SUNNY     55  37  50 NE6       30.10F
MANITOWOC      SUNNY     56  36  47 MISG      30.09S
APPLETON       SUNNY     52  34  50 N7        30.09S
CLINTONVILLE   SUNNY     55  32  41 N5        30.10F
OSHKOSH        SUNNY     54  36  50 N9        30.09F
$$

WIZ032>034-041-042-053>061-021600-
SOUTHWEST WISCONSIN

CITY           SKY/WX    TMP DP  RH WIND       PRES   REMARKS
LA CROSSE      SUNNY     54  40  59 S3        30.12S
SPARTA         SUNNY     54  39  56 CALM      30.12S
VIROQUA        SUNNY     54  41  61 CALM      30.11F
BOSCOBEL       SUNNY     53  43  68 NE3       30.13S
PRAIRIE DU CHI CLOUDY    46  44  96 CALM      30.13S FOG
PLATTEVILLE    SUNNY     54  44  70 NE5       30.11R
$$

WIZ056-057-062-063-064-067-068-021600-
SOUTH CENTRAL WISCONSIN

CITY           SKY/WX    TMP DP  RH WIND       PRES   REMARKS
REEDSBURG      SUNNY     53  39  57 CALM      30.11F
BARABOO/DELLS  SUNNY     53  37  54 N3        30.11F
LONE ROCK      SUNNY     55  42  61 NE5       30.12S
MINERAL POINT  SUNNY     54  41  62 N6        30.10S
MADISON        MOSUNNY   55  40  56 N10       30.10S
MIDDLETON      SUNNY     55  42  62 N6        30.10S
WATERTOWN      SUNNY     55  39  54 N8        30.09S
MONROE         SUNNY     54  41  62 N9        30.09R
JANESVILLE     SUNNY     55  39  54 NE9       30.08S
$$

WIZ051-052-058>065-066-070>072-021600-
SOUTHEAST WISCONSIN

CITY           SKY/WX    TMP DP  RH WIND       PRES   REMARKS
MILWAUKEE      MOSUNNY   50  39  66 N12       30.08S
WAUKESHA       SUNNY     54  36  50 NE6       30.09S
MILWAUKEE/TIMM SUNNY     52  34  50 N5        30.09S
RACINE         SUNNY     50  40  68 N13       30.09S
BURLINGTON     SUNNY     53  37  54 NE9       30.08S
KENOSHA        SUNNY     54  39  57 NE9       30.07S
FOND DU LAC    SUNNY     52  40  63 NE9       30.10S
SHEBOYGAN      SUNNY     56  38  50 N8        30.08S
WEST BEND      SUNNY     54  34  47 NE9       30.08S
JUNEAU         SUNNY     52  39  61 N7        30.10S
$$

LSZ147-162-021600-
LAKE SUPERIOR

STATION/POSITION TIME  TEMP    WIND        PRES    WAVE
                       AIR SEA DIR/SP/G            HT/PER
                 (UTC) (F)     (DEG/KT/KT) (MB)    (FT/S)
W MID LAKE BUOY  1450   39 37  100/  2/  2 1021.2F   1
DEVILS ISLAND    1500   41     270/  2/  4 1021.1F
SAXON HARBOR     1440   41      20/  3/  3 1020.3S
$$

LMZ867-665-643>646-021600-
LAKE MICHIGAN

STATION/POSITION TIME  TEMP    WIND        PRES    WAVE
                       AIR SEA DIR/SP/G            HT/PER
                 (UTC) (F)     (DEG/KT/KT) (MB)    (FT/S)
CHAMBERS ISLAND  1400   45      20/  4/  5 1019.6
N MID LAKE BUOY  1450   39 39  280/  2/  2 1019.4S   0
NORTHPORT PIER   1400   42     310/  8/  9 1019.6R
KEWAUNEE LAKESHO 1400   51      30/  4/  7 1018.4F
SHEBOYGAN LAKESH 1500   44      30/ 12/ 14 1019.7S
PORT WASHINGTON  1400   49      50/  8/ 10 1019.6
S MID LAKE BUOY  1450   41 40  360/  8/  8 1018.1R   1/ 4
KENOSHA   LAKESH 1500   45      30/ 12/ 14 1018.3S
$$

TC  - TEMPERATURE IN CELSIUS
VSB - VISIBILITY IN STATUTE MILES
WCI - WIND CHILL INDEX
HX  - HEAT INDEX





USA.gov is the U.S. government's official web portal to all federal, state and local government web resources and services.